Simultaneous Nadir Overpasses (SNOs) Predictions

Prediction of SNOs near equator between AQUA and NPP Satellite Orbit:

Table of predicted SNOs near equator for the next 14.0 days since TLE Epoch: 2/28/2014
Index Date (AQUA) Time (AQUA) AQUA Lat,Lon Date (NPP) Time (NPP) NPP Lat,Lon Distance(km) Time Diff (sec)
1 03/02/2014 14:04:43 -29.96, 168.10 03/02/2014 13:54:43 -30.48, 168.27 59.53 600
2 03/02/2014 14:53:52 28.69, -23.95 03/02/2014 14:45:01 28.68, -23.93 1.16 531
3 03/02/2014 15:36:25 -4.00, 149.35 03/02/2014 15:28:41 -4.00, 149.36 0.11 464
4 03/02/2014 16:23:03 -6.44, -40.80 03/02/2014 16:16:32 -6.48, -40.99 21.93 391
5 03/02/2014 17:11:11 10.92, 127.83 03/02/2014 17:05:55 11.04, 127.38 50.77 316
6 03/02/2014 17:59:25 -15.55, -63.53 03/02/2014 17:55:25 -15.69, -64.24 77.99 240
7 03/05/2014 06:21:06 -29.99, -75.99 03/05/2014 06:11:32 -30.03, -75.82 17.30 574
8 03/05/2014 07:07:45 19.68, 94.16 03/05/2014 06:59:24 19.68, 94.16 0.24 501
9 03/05/2014 07:50:39 3.76, -93.08 03/05/2014 07:43:25 3.80, -93.11 5.36 434
10 03/05/2014 08:38:53 -8.40, 75.54 03/05/2014 08:32:55 -8.46, 75.24 33.64 358
11 03/05/2014 09:27:00 12.94,-115.81 03/05/2014 09:22:17 13.08,-116.37 61.86 283
12 03/05/2014 10:15:15 -17.50, 52.83 03/05/2014 10:11:48 -17.67, 52.01 88.42 207
13 03/07/2014 22:37:26 -29.99, 39.92 03/07/2014 22:28:27 -29.99, 39.97 4.39 539
14 03/07/2014 23:20:47 7.73,-147.27 03/07/2014 23:12:56 7.73,-147.26 1.37 471
15 03/08/2014 00:06:23 5.93, 23.31 03/07/2014 23:59:44 5.94, 23.15 16.84 399
16 03/08/2014 00:54:39 -10.44,-168.10 03/08/2014 00:49:15 -10.54,-168.50 45.69 324
17 03/08/2014 01:42:45 15.04, 0.57 03/08/2014 01:38:37 15.16, -0.10 73.20 248
18 03/08/2014 02:31:00 -19.60, 169.23 03/08/2014 02:28:07 -19.81, 168.31 98.77 173
19 03/10/2014 14:04:22 29.96, -11.80 03/10/2014 13:54:42 30.00, -11.58 21.41 580
20 03/10/2014 14:51:57 -23.49, 157.48 03/10/2014 14:43:32 -23.49, 157.47 0.67 505
21 03/10/2014 15:34:03 -3.34, -28.98 03/10/2014 15:26:44 -3.34, -28.98 0.46 439
22 03/10/2014 16:22:08 8.00, 139.68 03/10/2014 16:16:04 8.08, 139.42 29.71 364
23 03/10/2014 17:10:22 -12.63, -51.69 03/10/2014 17:05:34 -12.73, -52.21 57.89 288
24 03/10/2014 17:58:29 17.17, 116.98 03/10/2014 17:54:56 17.35, 116.21 84.65 213
25 03/13/2014 06:20:40 29.98, 104.13 03/13/2014 06:11:38 29.99, 104.21 7.23 542
26 03/13/2014 07:05:00 -11.76, -83.91 03/13/2014 06:57:08 -11.76, -83.91 0.83 472
27 03/13/2014 07:49:41 -5.74, 87.47 03/13/2014 07:42:59 -5.76, 87.34 13.69 402
28 03/13/2014 08:37:48 10.27,-103.90 03/13/2014 08:32:21 10.38,-104.27 42.75 327
29 03/13/2014 09:26:02 -14.90, 64.74 03/13/2014 09:21:51 -15.03, 64.10 70.24 251
30 03/13/2014 10:14:09 19.43,-126.57 03/13/2014 10:11:14 19.59,-127.47 96.10 175




NCC Satellite Simultaneous Nadir Overpasses (SNOs) Prediction Service
